{"data":{"norad_id":62979,"intl_designator":"2025-030J","name":"HULIANWANG DIGUI-19","alt_names":[],"object_type":"PAYLOAD","status":"ACTIVE","operator":null,"country":"PRC","launch_date":"2025-02-11","launch_site_code":"WSC","launch_vehicle":null,"mission":null,"orbit_class":"UNKNOWN","rcs_meters":null,"size_class":null,"mass_kg":null,"dimensions":null,"purposes":[],"wikipedia_slug":null,"has_3d_model":false,"image_url":null,"decayed_at":null,"tle_current":{"epoch":"2026-09-22T22:39:19.898784Z","epoch_age_seconds":104415,"freshness":"FRESH","line1":"1 62979U 25030J   26265.94398031 -.00000101  00000+0  50480-4 0  9994","line2":"2 62979  50.0040 245.1739 0000584  35.5497 324.5414 13.29321862 78864","mean_motion":13.29321862,"eccentricity":5.84e-5,"inclination_deg":50.004,"raan_deg":245.1739,"arg_perigee_deg":35.5497,"mean_anomaly_deg":324.5414,"bstar":5.048e-5,"rev_number":7886,"period_min":108.3259097111,"perigee_km":1148.8825895078,"apogee_km":1149.7617967415,"semimajor_km":7527.4591931247,"source":"CELESTRAK","updated_at":"2026-09-23T09:00:21.737219Z"}}}